Time,TemperatureF,DewpointF,PressureIn,WindDirection,WindDirectionDegrees,WindSpeedMPH,WindSpeedGustMPH,Humidity,HourlyPrecipIn,Conditions,Clouds,dailyrainin,SoftwareType,DateUTC
2013-04-13 00:03:00,49.0,40.0,29.83,NW,306,1.0,3.0,70,0.00,,,1.43,,2013-04-13 04:03:00,
2013-04-13 00:12:00,49.0,40.0,29.83,NW,306,1.0,3.0,70,0.00,,,1.43,,2013-04-13 04:12:00,
2013-04-13 00:23:00,49.0,40.0,29.83,NW,306,1.0,3.0,70,0.00,,,1.43,,2013-04-13 04:23:00,
2013-04-13 00:33:00,49.0,38.0,29.82,WNW,299,1.0,4.0,66,0.00,,,1.17,,2013-04-13 04:33:00,
2013-04-13 00:42:00,49.0,38.0,29.82,WNW,299,1.0,4.0,66,0.00,,,1.17,,2013-04-13 04:42:00,
2013-04-13 00:53:00,49.0,38.0,29.82,WNW,299,1.0,4.0,66,0.00,,,1.17,,2013-04-13 04:53:00,
2013-04-13 01:03:00,49.0,38.0,29.83,WNW,294,1.0,5.0,65,0.00,,,1.17,,2013-04-13 05:03:00,
2013-04-13 01:12:00,49.0,38.0,29.83,WNW,294,1.0,5.0,65,0.00,,,1.17,,2013-04-13 05:12:00,
2013-04-13 01:22:00,49.0,38.0,29.83,WNW,294,1.0,5.0,65,0.00,,,1.17,,2013-04-13 05:22:00,
2013-04-13 01:32:00,49.0,38.0,29.83,NW,316,0.0,7.0,66,0.00,,,1.00,,2013-04-13 05:32:00,
2013-04-13 01:43:00,49.0,38.0,29.83,NW,316,0.0,7.0,66,0.00,,,1.00,,2013-04-13 05:43:00,
2013-04-13 01:53:00,49.0,38.0,29.83,NW,316,0.0,7.0,66,0.00,,,1.00,,2013-04-13 05:53:00,
2013-04-13 02:02:00,48.0,38.0,29.84,WNW,292,2.0,7.0,67,0.00,,,1.00,,2013-04-13 06:02:00,
2013-04-13 02:12:00,48.0,38.0,29.84,WNW,292,2.0,7.0,67,0.00,,,1.00,,2013-04-13 06:12:00,
2013-04-13 02:24:00,48.0,38.0,29.84,WNW,292,2.0,7.0,67,0.00,,,1.00,,2013-04-13 06:24:00,
2013-04-13 02:35:00,48.0,36.0,29.83,NNW,340,1.0,3.0,62,0.00,,,0.94,,2013-04-13 06:35:00,
2013-04-13 02:47:00,48.0,36.0,29.83,NNW,340,1.0,3.0,62,0.00,,,0.94,,2013-04-13 06:47:00,
2013-04-13 02:56:00,48.0,36.0,29.83,NNW,340,1.0,3.0,62,0.00,,,0.94,,2013-04-13 06:56:00,
2013-04-13 03:15:00,48.0,36.0,29.84,WNW,291,0.0,5.0,64,0.00,,,0.94,,2013-04-13 07:15:00,
2013-04-13 03:25:00,48.0,36.0,29.84,WNW,291,0.0,5.0,64,0.00,,,0.94,,2013-04-13 07:25:00,
2013-04-13 03:35:00,48.0,37.0,29.85,NW,305,1.0,3.0,65,0.00,,,0.88,,2013-04-13 07:35:00,
2013-04-13 03:45:00,48.0,37.0,29.85,NW,305,1.0,3.0,65,0.00,,,0.88,,2013-04-13 07:45:00,
2013-04-13 03:57:00,48.0,37.0,29.85,NW,305,1.0,3.0,65,0.00,,,0.88,,2013-04-13 07:57:00,
2013-04-13 04:07:00,47.0,35.0,29.85,West,275,0.0,2.0,64,0.00,,,0.88,,2013-04-13 08:07:00,
2013-04-13 04:15:00,47.0,35.0,29.85,West,275,0.0,2.0,64,0.00,,,0.88,,2013-04-13 08:15:00,
2013-04-13 04:26:00,47.0,35.0,29.85,West,275,0.0,2.0,64,0.00,,,0.88,,2013-04-13 08:26:00,
2013-04-13 04:35:00,48.0,37.0,29.83,WSW,248,0.0,6.0,65,0.00,,,0.87,,2013-04-13 08:35:00,
2013-04-13 04:55:00,48.0,37.0,29.83,WSW,248,0.0,6.0,65,0.00,,,0.87,,2013-04-13 08:55:00,
2013-04-13 05:05:00,47.0,36.0,29.83,NNW,342,2.0,5.0,66,0.00,,,0.87,,2013-04-13 09:05:00,
2013-04-13 05:14:00,47.0,36.0,29.83,NNW,342,2.0,5.0,66,0.00,,,0.87,,2013-04-13 09:14:00,
2013-04-13 05:25:00,47.0,36.0,29.83,NNW,342,2.0,5.0,66,0.00,,,0.87,,2013-04-13 09:25:00,
2013-04-13 05:37:00,46.0,37.0,29.85,WNW,299,1.0,5.0,71,0.00,,,0.75,,2013-04-13 09:37:00,
2013-04-13 05:50:00,46.0,37.0,29.85,WNW,299,1.0,5.0,71,0.00,,,0.75,,2013-04-13 09:50:00,
2013-04-13 05:56:00,46.0,37.0,29.85,WNW,299,1.0,5.0,71,0.00,,,0.75,,2013-04-13 09:56:00,
2013-04-13 06:05:00,47.0,38.0,29.85,NNW,347,2.0,3.0,70,0.00,,,0.75,,2013-04-13 10:05:00,
2013-04-13 06:15:00,47.0,38.0,29.85,NNW,347,2.0,3.0,70,0.00,,,0.75,,2013-04-13 10:15:00,
2013-04-13 06:25:00,47.0,38.0,29.85,NNW,347,2.0,3.0,70,0.00,,,0.75,,2013-04-13 10:25:00,
2013-04-13 06:37:00,46.0,37.0,29.84,West,265,0.0,3.0,70,0.00,,,0.60,,2013-04-13 10:37:00,
2013-04-13 06:46:00,46.0,37.0,29.84,West,265,0.0,3.0,70,0.00,,,0.60,,2013-04-13 10:46:00,
2013-04-13 06:56:00,46.0,37.0,29.84,West,265,0.0,3.0,70,0.00,,,0.60,,2013-04-13 10:56:00,
2013-04-13 07:07:00,46.0,36.0,29.85,WNW,298,0.0,1.0,69,0.00,,,0.60,,2013-04-13 11:07:00,
2013-04-13 07:13:00,46.0,36.0,29.85,WNW,298,0.0,1.0,69,0.00,,,0.60,,2013-04-13 11:13:00,
2013-04-13 07:24:00,46.0,36.0,29.85,WNW,298,0.0,1.0,69,0.00,,,0.60,,2013-04-13 11:24:00,
2013-04-13 07:34:00,45.0,37.0,29.89,SSW,209,0.0,0.0,73,0.00,,,0.54,,2013-04-13 11:34:00,
2013-04-13 07:45:00,45.0,37.0,29.89,SSW,209,0.0,0.0,73,0.00,,,0.54,,2013-04-13 11:45:00,
2013-04-13 07:54:00,45.0,37.0,29.89,SSW,209,0.0,0.0,73,0.00,,,0.54,,2013-04-13 11:54:00,
2013-04-13 08:08:00,45.0,38.0,29.90,SSW,209,0.0,0.0,75,0.00,,,0.54,,2013-04-13 12:08:00,
2013-04-13 08:15:00,45.0,38.0,29.90,SSW,209,0.0,0.0,75,0.00,,,0.54,,2013-04-13 12:15:00,
2013-04-13 08:25:00,45.0,38.0,29.90,SSW,209,0.0,0.0,75,0.00,,,0.54,,2013-04-13 12:25:00,
2013-04-13 08:47:00,46.0,39.0,29.92,SSW,209,0.0,0.0,76,0.00,,,0.00,,2013-04-13 12:47:00,
2013-04-13 09:08:00,48.0,39.0,29.92,SSW,199,0.0,1.0,72,0.00,,,0.00,,2013-04-13 13:08:00,
2013-04-13 09:15:00,48.0,39.0,29.92,SSW,199,0.0,1.0,72,0.00,,,0.00,,2013-04-13 13:15:00,
2013-04-13 09:30:00,48.0,39.0,29.92,SSW,199,0.0,1.0,72,0.00,,,0.00,,2013-04-13 13:30:00,
2013-04-13 09:47:00,49.0,40.0,29.94,South,181,0.0,1.0,70,0.00,,,0.00,,2013-04-13 13:47:00,
2013-04-13 09:57:00,49.0,40.0,29.94,South,181,0.0,1.0,70,0.00,,,0.00,,2013-04-13 13:57:00,
2013-04-13 10:05:00,54.0,42.0,29.94,SSW,200,0.0,2.0,63,0.00,,,0.00,,2013-04-13 14:05:00,
2013-04-13 10:14:00,54.0,42.0,29.94,SSW,200,0.0,2.0,63,0.00,,,0.00,,2013-04-13 14:14:00,
2013-04-13 10:24:00,54.0,42.0,29.94,SSW,200,0.0,2.0,63,0.00,,,0.00,,2013-04-13 14:24:00,
2013-04-13 10:39:00,56.0,41.0,29.94,East,93,0.0,1.0,57,0.00,,,0.00,,2013-04-13 14:39:00,
2013-04-13 10:46:00,56.0,41.0,29.94,East,93,0.0,1.0,57,0.00,,,0.00,,2013-04-13 14:46:00,
2013-04-13 11:00:00,56.0,41.0,29.94,East,93,0.0,1.0,57,0.00,,,0.00,,2013-04-13 15:00:00,
2013-04-13 11:05:00,58.0,43.0,29.98,East,95,0.0,3.0,57,0.00,,,0.00,,2013-04-13 15:05:00,
2013-04-13 11:14:00,58.0,43.0,29.98,East,95,0.0,3.0,57,0.00,,,0.00,,2013-04-13 15:14:00,
2013-04-13 11:29:00,58.0,43.0,29.98,East,95,0.0,3.0,57,0.00,,,0.00,,2013-04-13 15:29:00,
2013-04-13 11:37:00,58.0,42.0,29.96,East,89,0.0,2.0,55,0.00,,,0.00,,2013-04-13 15:37:00,
2013-04-13 11:44:00,58.0,42.0,29.96,East,89,0.0,2.0,55,0.00,,,0.00,,2013-04-13 15:44:00,
2013-04-13 11:59:00,58.0,42.0,29.96,East,89,0.0,2.0,55,0.00,,,0.00,,2013-04-13 15:59:00,
2013-04-13 12:07:00,60.0,44.0,29.98,SSW,193,0.0,4.0,55,0.00,,,0.00,,2013-04-13 16:07:00,
2013-04-13 12:15:00,60.0,44.0,29.98,SSW,193,0.0,4.0,55,0.00,,,0.00,,2013-04-13 16:15:00,
2013-04-13 12:25:00,60.0,44.0,29.98,SSW,193,0.0,4.0,55,0.00,,,0.00,,2013-04-13 16:25:00,
2013-04-13 12:36:00,62.0,44.0,29.98,NE,55,0.0,2.0,51,0.00,,,0.00,,2013-04-13 16:36:00,
2013-04-13 12:45:00,62.0,44.0,29.98,NE,55,0.0,2.0,51,0.00,,,0.00,,2013-04-13 16:45:00,
2013-04-13 12:58:00,62.0,44.0,29.98,NE,55,0.0,2.0,51,0.00,,,0.00,,2013-04-13 16:58:00,
2013-04-13 13:08:00,64.0,44.0,29.96,SE,141,1.0,3.0,49,0.00,,,0.00,,2013-04-13 17:08:00,
2013-04-13 13:20:00,64.0,44.0,29.96,SE,141,1.0,3.0,49,0.00,,,0.00,,2013-04-13 17:20:00,
2013-04-13 13:38:00,66.0,42.0,29.95,East,88,1.0,3.0,41,0.00,,,0.00,,2013-04-13 17:38:00,
2013-04-13 13:44:00,66.0,42.0,29.95,East,88,1.0,3.0,41,0.00,,,0.00,,2013-04-13 17:44:00,
2013-04-13 14:04:00,66.0,42.0,29.95,East,88,1.0,3.0,41,0.00,,,0.00,,2013-04-13 18:04:00,
2013-04-13 14:15:00,68.0,41.0,29.93,ENE,78,2.0,4.0,38,0.00,,,0.00,,2013-04-13 18:15:00,
2013-04-13 14:25:00,68.0,41.0,29.93,ENE,78,2.0,4.0,38,0.00,,,0.00,,2013-04-13 18:25:00,
2013-04-13 14:33:00,73.0,39.0,29.95,North,352,2.0,6.0,29,0.00,,,0.00,,2013-04-13 18:33:00,
2013-04-13 14:42:00,73.0,39.0,29.95,North,352,2.0,6.0,29,0.00,,,0.00,,2013-04-13 18:42:00,
2013-04-13 14:53:00,73.0,39.0,29.95,North,352,2.0,6.0,29,0.00,,,0.00,,2013-04-13 18:53:00,
2013-04-13 15:03:00,72.0,38.0,29.95,ESE,104,2.0,5.0,29,0.00,,,0.00,,2013-04-13 19:03:00,
2013-04-13 15:12:00,72.0,38.0,29.95,ESE,104,2.0,5.0,29,0.00,,,0.00,,2013-04-13 19:12:00,
2013-04-13 15:23:00,72.0,38.0,29.95,ESE,104,2.0,5.0,29,0.00,,,0.00,,2013-04-13 19:23:00,
2013-04-13 15:32:00,71.0,35.0,29.91,East,92,1.0,3.0,27,0.00,,,0.00,,2013-04-13 19:32:00,
2013-04-13 15:42:00,71.0,35.0,29.91,East,92,1.0,3.0,27,0.00,,,0.00,,2013-04-13 19:42:00,
2013-04-13 15:53:00,71.0,35.0,29.91,East,92,1.0,3.0,27,0.00,,,0.00,,2013-04-13 19:53:00,
2013-04-13 16:02:00,72.0,32.0,29.90,NE,51,2.0,4.0,23,0.00,,,0.00,,2013-04-13 20:02:00,
2013-04-13 16:12:00,72.0,32.0,29.90,NE,51,2.0,4.0,23,0.00,,,0.00,,2013-04-13 20:12:00,
2013-04-13 16:22:00,72.0,32.0,29.90,NE,51,2.0,4.0,23,0.00,,,0.00,,2013-04-13 20:22:00,
2013-04-13 16:32:00,73.0,37.0,29.92,North,357,0.0,6.0,27,0.00,,,0.00,,2013-04-13 20:32:00,
2013-04-13 16:42:00,73.0,37.0,29.92,North,357,0.0,6.0,27,0.00,,,0.00,,2013-04-13 20:42:00,
2013-04-13 16:53:00,73.0,37.0,29.92,North,357,0.0,6.0,27,0.00,,,0.00,,2013-04-13 20:53:00,
2013-04-13 17:02:00,73.0,36.0,29.89,NNE,21,0.0,5.0,26,0.00,,,0.00,,2013-04-13 21:02:00,
2013-04-13 17:12:00,73.0,36.0,29.89,NNE,21,0.0,5.0,26,0.00,,,0.00,,2013-04-13 21:12:00,
2013-04-13 17:22:00,73.0,36.0,29.89,NNE,21,0.0,5.0,26,0.00,,,0.00,,2013-04-13 21:22:00,
2013-04-13 17:33:00,74.0,35.0,29.89,NNE,31,0.0,1.0,24,0.00,,,0.00,,2013-04-13 21:33:00,
2013-04-13 17:43:00,74.0,35.0,29.89,NNE,31,0.0,1.0,24,0.00,,,0.00,,2013-04-13 21:43:00,
2013-04-13 17:53:00,74.0,35.0,29.89,NNE,31,0.0,1.0,24,0.00,,,0.00,,2013-04-13 21:53:00,
2013-04-13 18:03:00,75.0,34.0,29.89,WNW,295,0.0,1.0,22,0.00,,,0.00,,2013-04-13 22:03:00,
2013-04-13 18:12:00,75.0,34.0,29.89,WNW,295,0.0,1.0,22,0.00,,,0.00,,2013-04-13 22:12:00,
2013-04-13 18:23:00,75.0,34.0,29.89,WNW,295,0.0,1.0,22,0.00,,,0.00,,2013-04-13 22:23:00,
2013-04-13 18:33:00,73.0,35.0,29.90,SSW,209,0.0,4.0,25,0.00,,,0.00,,2013-04-13 22:33:00,
2013-04-13 18:42:00,73.0,35.0,29.90,SSW,209,0.0,4.0,25,0.00,,,0.00,,2013-04-13 22:42:00,
2013-04-13 18:53:00,73.0,35.0,29.90,SSW,209,0.0,4.0,25,0.00,,,0.00,,2013-04-13 22:53:00,
2013-04-13 19:02:00,68.0,36.0,29.92,NW,326,0.0,5.0,31,0.00,,,0.00,,2013-04-13 23:02:00,
2013-04-13 19:12:00,68.0,36.0,29.92,NW,326,0.0,5.0,31,0.00,,,0.00,,2013-04-13 23:12:00,
2013-04-13 19:22:00,68.0,36.0,29.92,NW,326,0.0,5.0,31,0.00,,,0.00,,2013-04-13 23:22:00,
2013-04-13 19:33:00,64.0,37.0,29.94,NNW,335,1.0,7.0,37,0.00,,,0.00,,2013-04-13 23:33:00,
2013-04-13 19:42:00,64.0,37.0,29.94,NNW,335,1.0,7.0,37,0.00,,,0.00,,2013-04-13 23:42:00,
2013-04-13 19:53:00,64.0,37.0,29.94,NNW,335,1.0,7.0,37,0.00,,,0.00,,2013-04-13 23:53:00,
2013-04-13 20:03:00,61.0,38.0,29.93,NW,308,0.0,3.0,42,0.00,,,0.00,,2013-04-14 00:03:00,
2013-04-13 20:12:00,61.0,38.0,29.93,NW,308,0.0,3.0,42,0.00,,,0.00,,2013-04-14 00:12:00,
2013-04-13 20:22:00,61.0,38.0,29.93,NW,308,0.0,3.0,42,0.00,,,0.00,,2013-04-14 00:22:00,
2013-04-13 20:32:00,59.0,38.0,29.94,NW,305,0.0,0.0,46,0.00,,,0.00,,2013-04-14 00:32:00,
2013-04-13 20:42:00,59.0,38.0,29.94,NW,305,0.0,0.0,46,0.00,,,0.00,,2013-04-14 00:42:00,
2013-04-13 20:52:00,59.0,38.0,29.94,NW,305,0.0,0.0,46,0.00,,,0.00,,2013-04-14 00:52:00,
2013-04-13 21:02:00,58.0,37.0,29.96,NNW,328,0.0,1.0,46,0.00,,,0.00,,2013-04-14 01:02:00,
2013-04-13 21:12:00,58.0,37.0,29.96,NNW,328,0.0,1.0,46,0.00,,,0.00,,2013-04-14 01:12:00,
2013-04-13 21:22:00,58.0,37.0,29.96,NNW,328,0.0,1.0,46,0.00,,,0.00,,2013-04-14 01:22:00,
2013-04-13 21:32:00,57.0,38.0,29.98,NNW,328,0.0,2.0,49,0.00,,,0.00,,2013-04-14 01:32:00,
2013-04-13 21:42:00,57.0,38.0,29.98,NNW,328,0.0,2.0,49,0.00,,,0.00,,2013-04-14 01:42:00,
2013-04-13 21:53:00,57.0,38.0,29.98,NNW,328,0.0,2.0,49,0.00,,,0.00,,2013-04-14 01:53:00,
2013-04-13 22:02:00,56.0,37.0,30.00,NNW,328,0.0,1.0,49,0.00,,,0.00,,2013-04-14 02:02:00,
2013-04-13 22:12:00,56.0,37.0,30.00,NNW,328,0.0,1.0,49,0.00,,,0.00,,2013-04-14 02:12:00,
2013-04-13 22:22:00,56.0,37.0,30.00,NNW,328,0.0,1.0,49,0.00,,,0.00,,2013-04-14 02:22:00,
2013-04-13 22:32:00,55.0,39.0,30.01,NNW,328,0.0,1.0,55,0.00,,,0.00,,2013-04-14 02:32:00,
2013-04-13 22:42:00,55.0,39.0,30.01,NNW,328,0.0,1.0,55,0.00,,,0.00,,2013-04-14 02:42:00,
2013-04-13 22:53:00,55.0,39.0,30.01,NNW,328,0.0,1.0,55,0.00,,,0.00,,2013-04-14 02:53:00,
2013-04-13 23:03:00,53.0,38.0,30.02,NNW,328,0.0,0.0,56,0.00,,,0.00,,2013-04-14 03:03:00,
2013-04-13 23:12:00,53.0,38.0,30.02,NNW,328,0.0,0.0,56,0.00,,,0.00,,2013-04-14 03:12:00,
2013-04-13 23:22:00,53.0,38.0,30.02,NNW,328,0.0,0.0,56,0.00,,,0.00,,2013-04-14 03:22:00,
2013-04-13 23:33:00,53.0,37.0,30.01,NNW,328,0.0,0.0,55,0.00,,,0.00,,2013-04-14 03:33:00,
2013-04-13 23:42:00,53.0,37.0,30.01,NNW,328,0.0,0.0,55,0.00,,,0.00,,2013-04-14 03:42:00,
2013-04-13 23:53:00,53.0,37.0,30.01,NNW,328,0.0,0.0,55,0.00,,,0.00,,2013-04-14 03:53:00,